This demonstration page uses our WeatherBlox Daily Observations layout. Learn more.

Left ArrowRight Arrow

Hourly Observations for October 28, 2016

Temp ( °F °C ) Dew Point ( °F °C ) Humidity (%) Winds ( mph kmh ) Pressure ( in mb ) Visibility ( mi km ) Precip ( " mm )
12:53 am 00:53 Cloudy 50 10 46 7.8 86 86 Calm 29.76 1008 10 16 0.00 0.00
1:53 am 01:53 Mostly Cloudy 48 8.9 46 7.8 93 93 N 5 7 29.77 1008 10 16 0.00 0.00
2:53 am 02:53 Cloudy 48 8.9 47 8.3 96 96 S 7 11 29.78 1009 10 16 0.00 0.00
3:53 am 03:53 Cloudy 47 8.3 46 7.8 97 97 WSW 3 6 29.79 1009 10 16 0.00 0.03
4:53 am 04:53 Clear 46 7.8 45 7.2 96 96 W 6 9 29.82 1010 10 16 0.00 0.00
5:53 am 05:53 Partly Cloudy 47 8.3 46 7.8 97 97 W 8 13 29.84 1011 10 16 0.00 0.00
6:53 am 06:53 Mostly Cloudy 46 7.8 45 7.2 96 96 WSW 7 11 29.86 1011 10 16 0.00 0.00
7:53 am 07:53 Cloudy 44 6.7 42 5.6 93 93 WNW 9 15 29.89 1012 10 16 0.00 0.00
8:32 am 08:32 Cloudy 43 6 41 5 93 93 WNW 8 13 29.91 1013 10 16 0.00 0.00
8:48 am 08:48 Cloudy 43 6 41 5 93 93 WNW 9 15 29.94 1014 10 16 0.00 0.00
8:53 am 08:53 Cloudy 43 6.1 41 5 93 93 WNW 13 20 29.93 1014 9 14 0.00 0.00
9:53 am 09:53 Cloudy 42 5.6 41 5 96 96 WNW 9 15 29.96 1015 10 16 0.00 0.00
10:53 am 10:53 Cloudy 42 5.6 41 5 96 96 NNW 7 11 29.98 1015 10 16 0.00 0.00
11:53 am 11:53 Cloudy 44 6.7 42 5.6 93 93 NW 7 11 30.02 1017 10 16 0.00 0.00
12:53 pm 12:53 Cloudy 44 6.7 42 5.6 93 93 NW 10 17 30.02 1017 10 16 0.00 0.00
1:53 pm 13:53 Cloudy 45 7.2 41 5 86 86 NW 9 15 30.04 1017 10 16 0.00 0.00
2:11 pm 14:11 Cloudy 45 7.2 41 5 86 86 NW 7 11 30.06 1018 10 16 0.00 0.00
2:53 pm 14:53 Cloudy 45 7.2 41 5 86 86 NW 8 13 30.06 1018 10 16 0.00 0.00
3:53 pm 15:53 Cloudy 45 7.2 40 4.4 83 83 NW 6 9 30.06 1018 10 16 0.00 0.00
4:29 pm 16:29 Cloudy 45 7.2 40 4.4 83 83 SW 5 7 30.06 1018 10 16 0.00 0.00
4:53 pm 16:53 Cloudy 46 7.8 40 4.4 79 79 WSW 6 9 30.08 1019 10 16 0.00 0.00
5:53 pm 17:53 Partly Cloudy 43 6.1 39 3.9 86 86 W 6 9 30.10 1019 10 16 0.00 0.00
6:25 pm 18:25 Partly Cloudy 40 4.4 38 3.3 93 93 SW 7 11 30.09 1019 10 16 0.00 0.00
6:53 pm 18:53 Mostly Clear 40 4.4 38 3.3 93 93 WSW 8 13 30.12 1020 10 16 0.00 0.00
7:05 pm 19:05 Mostly Cloudy 41 5 39 3.9 93 93 WNW 6 9 30.12 1020 10 16 0.00 0.00
7:37 pm 19:37 Partly Cloudy 39 3.9 38 3.3 96 96 NE 3 6 30.15 1021 10 16 0.00 0.00
7:53 pm 19:53 Mostly Cloudy 40 4.4 39 3.9 97 97 NE 6 9 30.14 1021 10 16 0.00 0.00
8:53 pm 20:53 Cloudy 42 5.6 39 3.9 89 89 ENE 8 13 30.15 1021 10 16 0.00 0.00
9:53 pm 21:53 Cloudy 41 5 37 2.8 86 86 ENE 9 15 30.16 1021 10 16 0.00 0.00
10:53 pm 22:53 Cloudy 41 5 37 2.8 86 86 ENE 8 13 30.17 1022 10 16 0.00 0.00
11:53 pm 23:53 Cloudy 41 5 37 2.8 86 86 ENE 9 15 30.17 1022 10 16 0.00 0.00

Powered by AerisWeather